Date String (YYYY-MM-DD hh:mm:ss) UTC,Instrument flags,Ambient pressure (hPa),Sample flow (lpm),Bypass flow (lpm),Sample temperature (°C),Ambient temperature (°C),ASC tube jacket temperature (°C),LED temperature (°C),Box temperature (°C),Sample RH (%),Span deviation,Mass concentration (μg/m³),Mass concentration (μg/m³),Mass concentration (μg/m³)
DateTimeUTC,F1_M11,P_M11,Q1_M11,Q2_M11,T1_M11,T2_M11,T3_M11,T4_M11,T5_M11,U1_M11,ZSPAN_M11,X0_M11,X2_M11,X1_M11
2022-04-15 12:00:00,,0816.4,5.01,0.00,22.8,22.0,00.0,31.8,24.6,09.5,0000.0,0015.77,0005.25,0003.43
2022-04-15 12:01:00,,0816.1,5.00,0.00,22.8,22.0,00.0,31.8,24.6,09.5,0000.0,0015.42,0005.31,0003.46
2022-04-15 12:02:00,,0816.1,5.00,0.00,22.8,22.0,00.0,31.8,24.6,09.8,0000.0,0015.28,0005.35,0003.51
2022-04-15 12:03:00,,0816.1,5.00,0.00,22.8,22.0,00.0,31.8,24.6,09.8,0000.0,0015.86,0005.43,0003.58
2022-04-15 12:04:00,,0816.1,5.00,0.00,22.8,21.9,00.0,31.8,24.6,09.6,0000.0,0015.99,0005.54,0003.63
2022-04-15 12:05:00,,0816.1,5.00,0.00,22.8,21.9,00.0,31.8,24.6,09.7,0000.0,0017.21,0005.65,0003.67
2022-04-15 12:06:00,,0816.4,5.01,0.00,22.8,21.9,00.0,31.8,24.6,09.6,0000.0,0017.58,0005.64,0003.70
2022-04-15 12:07:00,,0816.2,5.00,0.00,22.8,21.9,00.0,31.8,24.6,09.2,0000.0,0017.55,0005.60,0003.69
2022-04-15 12:08:00,,0816.1,5.00,0.00,22.8,21.9,00.0,31.8,24.5,09.3,0000.0,0017.09,0005.58,0003.68
2022-04-15 12:09:00,,0816.2,5.00,0.00,22.8,21.9,00.0,31.8,24.5,09.3,0000.0,0016.34,0005.54,0003.66
2022-04-15 12:10:00,,0816.4,4.99,0.00,22.7,21.9,00.0,31.7,24.5,09.4,0000.0,0015.91,0005.49,0003.67
2022-04-15 12:11:00,,0816.3,5.01,0.00,22.7,21.8,00.0,31.7,24.5,09.4,0000.0,0016.09,0005.44,0003.66
2022-04-15 12:12:00,,0816.3,5.00,0.00,22.7,21.8,00.0,31.7,24.5,09.5,0000.0,0015.84,0005.36,0003.65
2022-04-15 12:13:00,,0816.1,5.00,0.00,22.7,21.8,00.0,31.7,24.5,09.6,0000.0,0015.15,0005.32,0003.64
2022-04-15 12:14:00,,0816.1,5.00,0.00,22.7,21.8,00.0,31.7,24.5,09.5,0000.0,0014.46,0005.28,0003.61
2022-04-15 12:15:00,,0816.3,4.99,0.00,22.7,21.8,00.0,31.7,24.5,09.5,0000.0,0014.47,0005.20,0003.61
2022-04-15 12:16:00,,0816.4,5.01,0.00,22.7,21.8,00.0,31.7,24.4,09.5,0000.0,0013.86,0005.14,0003.61
2022-04-15 12:17:00,,0816.4,5.00,0.00,22.7,21.7,00.0,31.7,24.4,09.5,0000.0,0012.68,0005.10,0003.61
2022-04-15 12:18:00,,0816.2,5.00,0.00,22.6,21.7,00.0,31.7,24.4,09.5,0000.0,0013.23,0005.15,0003.63
2022-04-15 12:19:00,,0816.3,4.99,0.00,22.6,21.7,00.0,31.6,24.4,09.4,0000.0,0013.95,0005.16,0003.65
2022-04-15 12:20:00,,0816.2,4.99,0.00,22.6,21.7,00.0,31.6,24.4,09.4,0000.0,0013.71,0005.05,0003.62
2022-04-15 12:21:00,,0816.3,5.00,0.00,22.6,21.7,00.0,31.6,24.4,09.4,0000.0,0013.68,0005.09,0003.61
2022-04-15 12:22:00,,0816.4,4.99,0.00,22.6,21.7,00.0,31.6,24.4,09.4,0000.0,0013.40,0005.18,0003.62
2022-04-15 12:23:00,,0816.4,5.01,0.00,22.6,21.7,00.0,31.6,24.3,09.3,0000.0,0013.79,0005.26,0003.62
2022-04-15 12:24:00,,0816.4,4.99,0.00,22.6,21.7,00.0,31.6,24.3,09.4,0000.0,0014.23,0005.30,0003.62
2022-04-15 12:25:00,,0816.3,5.00,0.00,22.6,21.7,00.0,31.6,24.3,09.4,0000.0,0014.47,0005.31,0003.63
2022-04-15 12:26:00,,0816.1,5.00,0.00,22.6,21.7,00.0,31.6,24.3,09.3,0000.0,0015.46,0005.35,0003.62
2022-04-15 12:27:00,,0816.1,5.00,0.00,22.6,21.7,00.0,31.6,24.3,09.3,0000.0,0014.76,0005.33,0003.61
2022-04-15 12:28:00,,0816.2,4.99,0.00,22.6,21.7,00.0,31.6,24.3,09.3,0000.0,0014.68,0005.34,0003.60
2022-04-15 12:29:00,,0816.1,5.00,0.00,22.5,21.7,00.0,31.6,24.3,09.4,0000.0,0014.23,0005.30,0003.59
2022-04-15 12:30:00,,0816.2,5.00,0.00,22.5,21.7,00.0,31.5,24.2,09.5,0000.0,0013.77,0005.28,0003.59
2022-04-15 12:31:00,,0816.2,5.01,0.00,22.5,21.6,00.0,31.5,24.2,09.5,0000.0,0013.89,0005.40,0003.63
2022-04-15 12:32:00,,0816.2,5.01,0.00,22.4,21.6,00.0,31.5,24.1,09.3,0000.0,0013.91,0005.40,0003.63
2022-04-15 12:33:00,,0816.3,4.99,0.00,22.4,21.6,00.0,31.5,24.2,09.3,0000.0,0014.07,0005.34,0003.61
2022-04-15 12:34:00,,0816.1,5.00,0.00,22.4,21.6,00.0,31.5,24.2,09.3,0000.0,0015.44,0005.33,0003.61
2022-04-15 12:35:00,,0816.1,5.00,0.00,22.4,21.6,00.0,31.5,24.2,09.4,0000.0,0015.48,0005.27,0003.60
2022-04-15 12:36:00,,0816.2,5.00,0.00,22.4,21.6,00.0,31.5,24.2,10.0,0000.0,0014.94,0005.14,0003.54
2022-04-15 12:37:00,,0816.3,5.00,0.00,22.4,21.6,00.0,31.5,24.2,09.9,0000.0,0013.36,0004.93,0003.48
2022-04-15 12:38:00,,0816.2,5.00,0.00,22.4,21.6,00.0,31.4,24.2,09.6,0000.0,0013.31,0004.93,0003.46
2022-04-15 12:39:00,,0816.4,5.01,0.00,22.4,21.6,00.0,31.4,24.2,09.6,0000.0,0013.97,0004.96,0003.45
2022-04-15 12:40:00,,0816.1,5.00,0.00,22.4,21.5,00.0,31.4,24.1,09.6,0000.0,0014.09,0004.98,0003.44
2022-04-15 12:41:00,,0816.2,4.99,0.00,22.4,21.5,00.0,31.4,24.1,10.0,0000.0,0013.60,0004.97,0003.41
2022-04-15 12:42:00,,0816.1,5.00,0.00,22.4,21.6,00.0,31.4,24.1,10.0,0000.0,0013.26,0004.91,0003.37
2022-04-15 12:43:00,,0816.3,4.99,0.00,22.5,22.2,00.0,31.5,24.3,09.8,0000.0,0013.46,0004.89,0003.35
2022-04-15 12:44:00,,0816.1,5.01,0.00,22.6,23.1,00.0,31.5,24.6,09.7,0000.0,0013.45,0004.85,0003.35
2022-04-15 12:45:00,,0816.2,5.00,0.00,22.7,23.3,00.0,31.5,24.7,09.6,0000.0,0012.00,0004.81,0003.34
2022-04-15 12:46:00,,0816.4,4.99,0.00,22.8,23.1,00.0,31.5,24.7,09.5,0000.0,0011.51,0004.82,0003.33
2022-04-15 12:47:00,,0816.4,4.99,0.00,22.8,22.9,00.0,31.6,24.7,09.4,0000.0,0011.48,0004.86,0003.34
2022-04-15 12:48:00,,0816.3,5.01,0.00,22.8,22.7,00.0,31.6,24.7,09.4,0000.0,0011.84,0004.96,0003.39
2022-04-15 12:49:00,,0816.4,5.00,0.00,22.8,22.6,00.0,31.6,24.7,09.4,0000.0,0012.66,0005.02,0003.40
2022-04-15 12:50:00,,0816.4,5.01,0.00,22.8,22.5,00.0,31.6,24.7,09.4,0000.0,0013.19,0005.04,0003.39
2022-04-15 12:51:00,,0816.2,5.00,0.00,22.8,22.4,00.0,31.6,24.7,09.4,0000.0,0012.71,0004.96,0003.36
2022-04-15 12:52:00,,0816.2,4.99,0.00,22.8,22.3,00.0,31.6,24.7,09.6,0000.0,0012.79,0004.90,0003.35
2022-04-15 12:53:00,,0816.3,4.99,0.00,22.8,22.2,00.0,31.6,24.7,09.6,0000.0,0012.90,0004.86,0003.36
2022-04-15 12:54:00,,0816.3,5.00,0.00,22.8,22.2,00.0,31.7,24.7,09.6,0000.0,0013.30,0004.89,0003.36
2022-04-15 12:55:00,,0816.2,5.02,0.00,22.8,22.1,00.0,31.7,24.7,10.3,0000.0,0012.98,0004.87,0003.33
2022-04-15 12:56:00,,0816.2,5.00,0.00,22.8,22.1,00.0,31.7,24.7,10.4,0000.0,0012.69,0004.81,0003.28
2022-04-15 12:57:00,,0816.2,5.01,0.00,22.8,22.1,00.0,31.7,24.7,10.0,0000.0,0012.94,0004.74,0003.25
2022-04-15 12:58:00,,0816.2,4.99,0.00,22.8,22.1,00.0,31.7,24.6,09.9,0000.0,0012.93,0004.73,0003.24
2022-04-15 12:59:00,,0816.2,5.00,0.00,22.8,22.0,00.0,31.7,24.6,10.0,0000.0,0012.92,0004.72,0003.22
